User: anonymous   Login
Location: Bismarck
(46.7731°N, 100.8200°W)
Time: 20:34:27
(UTC-05:00)
Language:

Landsat 7 - Orbit

View from above orbital plane
View from above orbital plane
View from above satellite
View from above satellite

Ground track
Ground track

The orbit data is extracted from the following two-line orbital elements,

1 25682U 99020A   17112.77803124 +.00000300 +00000-0 +76684-4 0  9995
2 25682 098.2147 184.6966 0001238 103.5698 256.5653 14.57106463958520
Epoch (UTC): 22 April 2017 18:40:21
Eccentricity: 0.0001238
inclination: 98.2147°
perigee height: 701 km
apogee height: 703 km
right ascension of ascending node: 184.6966°
argument of perigee: 103.5698°
revolutions per day: 14.57106463
mean anomaly at epoch: 256.5653°
orbit number at epoch: 95852

The dashed part of the orbit path shows where the satellite is in the earth's shadow,  

DLR